SCP
-0 0 0 0 0 0 0 0 0 0 0 0 0 0 0 0 0 0 0 0 0 0 0 0 0 0 0 0 0 0 0 0 0 0 0 0 0 0 0 0 0 0 0 0 0 0 0 0 0
-0 -0 0 0 0 0 0 0 0 0 0 0 0 0 0 0 0 0 0 0 1 0 0 0 0 0 0 0 0 0 0 0 0 0 0 0 0 0 0 0 0 0 0 0 0 0 0 0 0
-0 0 0 0 0 0 0 0 0 0 0 0 0 0 0 0 0 0 0 1 1 0 0 0 0 0 0 0 0 0 0 0 0 0 0 0 0 0 0 0 0 0 0 0 0 0 0 0 0
-0 -0 0 0 0 0 0 0 0 0 0 0 0 0 0 0 0 0 1 1 1 1 0 0 0 0 0 0 0 0 0 0 0 0 0 0 0 0 0 0 0 0 0 0 0 0 0 0 0
0 0 0 0 0 0 0 0 0 0 0 0 0 1 1 1 0 0 1 1 1 1 0 0 0 1 0 0 0 0 0 0 0 0 0 0 0 0 0 0 0 0 0 0 0 0 0 0 0
0 0 0 0 0 0 0 0 0 0 0 0 1 1 1 1 1 0 1 1 1 1 0 0 0 1 1 0 0 0 0 0 0 0 0 0 0 0 0 0 0 0 0 0 0 0 0 0 0
0 0 0 0 0 0 0 0 0 0 0 1 1 1 1 1 1 1 1 1 1 1 1 0 0 0 0 0 0 0 0 0 0 0 0 0 0 0 0 0 0 0 0 0 0 0 0 0 0
0 0 0 0 0 0 0 0 0 0 1 1 1 1 1 1 1 1 1 1 1 1 1 0 0 0 0 0 0 0 0 0 0 0 0 0 0 0 0 0 0 0 0 0 0 0 0 0 0
0 0 0 0 0 0 0 0 0 1 1 1 1 1 1 1 1 1 1 1 1 1 1 1 0 0 0 0 0 0 0 0 0 0 0 0 0 0 0 0 0 0 0 0 0 0 0 0 0
0 0 0 0 0 0 0 0 0 0 0 1 1 1 1 1 1 1 1 1 1 1 1 1 1 1 0 0 1 0 0 0 0 0 0 0 0 0 0 0 0 0 0 0 0 0 0 0 0
0 0 0 0 0 0 0 0 0 0 0 1 1 1 1 1 1 1 1 1 1 1 1 1 1 1 1 1 1 1 1 1 1 1 1 1 0 0 0 1 1 0 0 0 0 0 0 0 0
0 0 0 0 0 0 0 0 0 0 1 1 1 1 1 1 1 1 1 1 1 1 1 1 1 1 1 1 1 1 1 1 1 1 1 1 1 1 1 1 1 1 1 0 0 0 0 0 0
0 0 0 0 0 0 0 0 0 1 1 1 1 1 1 1 1 1 1 1 1 1 1 1 1 1 1 1 1 1 1 1 1 1 1 1 1 1 1 1 1 1 1 1 1 0 0 0 0
0 0 0 0 0 0 0 0 0 0 0 1 1 1 1 1 1 1 1 1 1 1 1 1 1 1 1 1 1 1 1 1 1 1 1 1 1 1 1 1 1 1 1 1 1 0 0 0 0
0 0 0 0 0 0 0 0 0 0 0 0 1 1 1 1 1 1 1 1 2 2 1 1 1 1 1 1 1 1 1 1 1 1 1 1 1 1 1 1 1 1 1 1 1 1 0 0 0
0 0 0 0 0 0 0 0 0 0 0 1 1 1 1 1 1 1 1 2 2 2 2 1 1 1 1 1 1 1 1 1 1 1 1 1 1 1 1 1 1 1 1 1 1 1 0 0 0
0 0 0 0 0 0 0 0 0 0 0 1 1 1 1 1 1 1 1 2 2 2 2 1 1 1 1 1 1 1 1 1 1 1 1 1 1 1 1 1 1 1 1 1 1 1 1 0 0
0 0 0 0 0 0 0 0 0 0 0 1 1 1 1 1 1 1 1 2 2 2 2 2 1 1 1 1 1 1 1 1 1 1 1 1 1 1 1 1 1 1 1 1 1 1 0 0 0
0 0 0 0 0 0 0 0 0 0 1 1 1 1 1 1 1 1 1 1 2 2 2 2 2 1 1 1 1 1 1 1 1 1 1 1 1 1 1 1 1 1 1 1 1 0 0 0 0
0 0 0 0 0 0 0 0 0 0 1 1 1 1 1 1 1 2 2 2 2 2 2 2 2 1 1 1 1 1 1 1 1 1 1 1 1 1 1 1 1 1 1 1 0 0 0 0 0
0 0 0 0 0 0 0 0 0 0 0 1 1 1 1 1 2 2 2 2 2 2 2 1 1 1 1 1 1 1 1 1 1 1 1 1 1 1 1 1 1 1 1 0 0 0 0 0 0
0 0 0 0 0 0 0 0 0 0 1 1 1 1 1 1 2 2 2 2 2 2 1 1 1 1 1 1 1 1 1 1 1 1 1 1 1 1 0 0 0 0 0 0 0 0 0 0 0
0 0 0 0 0 0 0 0 0 0 1 1 1 1 1 1 2 2 2 2 2 1 1 1 1 1 1 1 1 1 1 1 1 1 1 1 1 1 0 0 0 0 0 0 0 0 0 0 0
0 0 0 0 0 0 0 0 0 0 0 0 1 1 1 1 2 2 2 2 2 1 1 1 1 1 1 1 1 1 1 1 1 1 1 1 1 0 0 0 0 0 0 0 0 0 0 0 0
0 0 0 0 0 0 0 0 0 0 0 1 1 1 1 2 2 2 2 2 1 1 1 1 1 1 1 1 1 1 1 1 1 1 1 1 0 0 0 0 0 0 0 0 0 0 0 0 0
0 0 0 0 0 0 0 0 0 0 1 1 1 1 1 2 2 2 2 1 1 1 1 1 1 1 1 1 1 1 1 0 1 1 1 1 0 0 0 0 0 0 0 0 0 0 0 0 0
0 0 0 0 0 0 0 0 0 1 1 1 1 1 1 1 2 2 2 1 1 1 1 1 1 1 1 1 1 1 1 1 1 1 1 1 1 0 0 0 0 0 0 0 0 0 0 0 0
0 0 0 0 0 0 0 0 0 0 1 1 1 1 1 1 1 2 1 1 1 1 1 1 1 1 1 1 1 1 1 1 1 0 1 1 1 0 0 0 0 0 0 0 0 0 0 0 0
0 0 0 0 0 0 0 0 0 0 0 1 1 1 1 1 1 1 1 1 1 1 1 1 1 1 1 1 1 1 1 1 0 0 0 0 0 0 0 0 0 0 0 0 0 0 0 0 0
0 0 0 0 0 0 0 0 0 0 0 0 1 1 1 1 1 1 1 1 1 1 1 1 1 1 1 1 1 1 1 0 0 0 0 0 0 0 0 0 0 0 0 0 0 0 0 0 0
Wind_Speed
9 12 10 9 8 8 10 5 2 5 8 10 11 11 13 14 10 11 9 14 19 17 14 14 12 12 11 11 11 11 11 10 10 9 8 7 7 6 6 6 5 5 5 5 4 4 4 4 4
10 13 10 8 9 9 6 4 3 7 10 10 10 12 13 14 13 12 12 15 18 16 13 13 13 12 12 11 11 11 11 10 9 8 8 7 6 6 5 5 4 4 4 4 3 3 3 3 2
12 16 9 9 12 9 4 4 6 9 8 9 9 11 10 9 10 10 13 16 16 15 14 13 13 12 12 12 11 11 10 10 9 8 7 6 5 4 4 4 3 3 3 2 2 2 2 2 2
9 9 8 10 12 8 3 4 6 8 8 8 10 10 10 8 9 13 14 16 16 15 14 13 13 12 12 12 11 11 10 9 8 7 6 5 4 4 3 3 2 2 2 1 1 1 1 1 2
10 8 11 13 12 4 3 2 5 8 7 9 11 12 10 9 14 15 14 14 14 14 14 13 13 12 12 11 11 10 10 9 8 7 6 4 4 3 2 2 1 1 1 1 1 1 1 2 3
8 8 12 13 10 4 4 4 3 7 7 10 12 14 10 10 13 13 13 13 14 15 15 13 13 12 12 11 10 10 9 8 7 6 5 4 4 3 2 2 1 0 1 1 2 2 2 3 5
11 11 14 15 8 5 5 6 3 5 6 7 8 11 11 11 11 12 12 12 13 14 14 12 12 11 11 11 10 9 8 7 7 5 4 4 4 3 3 2 1 1 1 2 3 4 4 5 6
12 12 16 14 8 5 5 5 6 5 7 7 6 8 11 13 12 12 11 11 12 12 12 11 11 10 10 9 10 9 8 7 6 5 4 4 4 4 4 4 3 3 3 4 5 6 6 7 8
16 13 14 11 6 5 6 5 7 7 9 7 8 11 15 16 14 12 11 9 9 10 9 10 10 9 8 9 9 8 8 6 6 5 5 4 4 4 4 4 4 4 5 6 6 7 8 9 10
13 12 11 6 3 3 5 7 7 8 10 10 12 15 17 15 13 12 11 10 9 9 8 8 8 7 6 6 7 5 5 5 4 3 3 3 3 2 1 4 5 5 7 8 8 9 10 9 5
13 12 6 5 1 1 4 5 5 6 8 9 13 16 15 14 12 10 10 9 9 8 6 7 7 6 5 4 5 3 2 3 3 2 2 2 2 1 0 1 2 3 5 4 4 6 5 4 3
10 8 4 4 2 2 1 3 5 8 8 10 13 13 11 11 11 9 9 9 8 8 7 5 5 5 4 4 3 3 2 2 2 3 1 0 0 1 1 0 1 2 2 2 2 3 3 4 4
9 7 4 4 2 2 1 2 7 10 11 11 13 13 11 9 10 9 8 8 7 7 7 6 5 4 4 3 1 2 2 2 2 2 1 1 1 1 1 1 1 2 1 1 2 3 3 3 4
7 7 7 7 7 6 4 2 4 9 11 12 12 13 12 9 9 9 8 8 7 6 5 5 6 5 4 3 1 1 1 1 2 2 2 1 1 1 2 2 1 1 2 2 2 3 3 2 2
7 8 9 9 8 7 7 5 5 7 9 10 11 12 12 10 8 9 8 7 6 6 5 4 5 5 4 3 1 1 1 1 1 2 2 1 2 2 2 2 1 2 2 2 2 3 2 3 3
9 10 10 9 9 9 7 6 6 8 8 9 9 10 10 9 9 8 8 7 6 6 5 4 4 6 4 3 1 1 1 2 2 2 2 2 1 2 2 2 2 2 2 2 2 1 2 2 2
9 9 10 9 10 9 9 6 7 7 7 9 10 10 10 9 9 8 8 7 6 6 5 5 5 4 4 3 2 2 1 1 1 2 2 2 2 2 2 1 2 3 2 2 3 2 2 3 3
6 7 9 8 9 8 8 8 11 11 10 10 10 10 10 10 9 9 8 8 7 6 5 5 5 4 3 2 2 1 1 1 1 2 1 2 2 2 2 1 2 3 2 2 3 3 3 2 2
6 6 7 5 5 6 7 8 11 13 11 10 9 10 10 10 10 10 9 8 7 6 6 6 5 4 3 2 2 1 1 1 1 1 1 2 2 3 2 2 2 2 1 2 2 2 4 3 2
8 6 5 4 4 5 7 8 9 12 13 10 9 9 9 9 10 10 9 8 7 7 6 6 5 4 2 1 1 1 1 0 1 1 1 2 2 2 3 2 2 3 2 2 2 2 2 3 2
7 5 5 5 5 7 8 9 10 11 11 10 9 8 9 9 10 10 9 8 7 7 6 5 4 4 2 2 1 1 1 0 0 1 1 1 2 2 2 2 3 3 3 2 3 2 3 2 3
7 4 4 6 6 6 9 8 8 10 10 8 6 7 7 9 10 10 9 8 8 7 7 6 5 4 3 2 2 1 1 0 0 1 1 1 1 1 2 2 3 3 3 3 3 3 3 3 3
8 5 6 8 9 9 8 9 4 8 8 8 7 8 8 10 10 11 11 9 8 7 7 6 5 4 3 2 2 1 0 0 1 1 0 1 1 0 1 1 2 3 2 3 3 3 3 2 3
7 8 9 9 8 10 8 8 5 5 6 7 8 9 9 8 9 9 9 8 7 7 6 6 5 4 3 2 2 1 0 0 0 1 1 1 1 0 1 1 2 3 2 3 3 3 3 2 3
8 8 6 6 5 7 7 7 3 2 4 5 7 7 9 10 10 10 9 8 7 6 6 5 5 4 3 3 2 1 1 1 1 1 1 1 1 0 2 2 2 2 3 3 2 3 3 3 3
8 9 7 7 9 8 5 5 1 5 7 7 7 7 8 9 9 9 9 8 7 6 5 6 5 4 3 3 2 2 1 1 1 1 2 1 1 1 1 2 2 3 3 3 3 3 2 2 3
10 8 7 8 11 10 5 2 3 3 6 7 6 5 7 7 8 8 8 7 7 7 6 6 5 4 3 3 3 3 2 1 1 1 2 1 1 1 1 1 2 2 3 3 3 2 2 2 3
10 8 5 6 7 9 7 3 1 2 4 5 5 5 6 7 7 7 7 6 5 5 4 4 4 4 3 3 2 2 1 1 1 1 1 1 1 2 1 2 2 2 2 2 2 2 2 2 3
9 10 8 7 8 9 8 3 2 2 3 5 5 6 7 7 8 8 7 7 6 5 5 4 3 3 3 2 2 1 1 0 1 1 0 0 0 1 1 1 2 2 2 2 2 2 2 3 3
10 9 8 8 8 9 8 3 1 1 3 4 5 6 7 8 8 8 8 7 6 5 5 4 4 3 2 2 2 1 1 0 0 0 0 0 0 1 1 1 2 2 2 2 3 3 3 3 3
Wind_Direction
257 255 244 251 245 241 245 230 168 100 88 73 63 70 71 58 67 98 117 109 108 112 117 113 112 115 117 119 121 121 121 122 121 120 117 111 104 98 93 89 84 82 79 77 75 72 67 60 53
263 258 246 246 248 249 241 165 124 92 90 90 82 79 75 72 81 105 114 110 111 117 121 113 115 115 118 120 122 123 125 125 124 122 120 116 110 105 100 96 90 85 79 73 70 66 61 54 43
262 261 254 244 244 253 251 119 116 104 102 100 88 74 68 78 94 107 118 117 113 114 112 114 117 116 119 121 124 125 127 128 127 126 124 121 117 112 108 103 96 89 79 70 64 57 44 29 8
249 235 238 248 249 240 189 127 119 118 111 104 101 85 76 71 104 119 122 118 117 120 117 116 117 118 120 123 126 127 128 129 128 126 125 124 123 119 115 110 103 97 80 56 38 39 21 341 323
240 248 239 248 247 203 136 122 153 122 118 109 102 99 95 93 108 119 122 122 126 123 119 121 118 117 119 122 124 125 127 127 126 126 127 128 130 132 133 125 113 95 74 10 350 345 332 311 302
229 236 243 246 238 191 155 152 201 120 114 111 113 112 106 112 116 126 128 130 130 125 122 124 124 122 122 122 122 122 122 123 125 129 133 139 147 150 153 148 143 162 260 297 306 304 297 292 286
241 247 250 250 233 190 164 152 170 114 111 101 108 112 122 126 127 131 129 129 126 123 127 136 137 133 130 128 128 129 129 130 132 134 138 147 158 165 165 169 197 240 266 276 280 279 276 274 272
242 262 264 258 235 189 154 161 125 112 89 87 107 118 135 135 135 132 130 126 123 121 129 138 142 143 146 144 142 141 141 143 144 150 162 181 195 197 198 199 208 241 258 266 269 271 269 267 265
240 253 262 260 232 182 149 139 113 106 99 91 80 103 127 136 139 136 131 126 124 122 130 138 139 144 154 153 147 151 155 160 164 175 191 206 221 213 203 210 191 224 247 259 262 265 266 266 259
230 245 262 279 266 171 155 150 147 140 124 110 103 110 127 139 143 143 139 136 131 127 133 130 134 144 153 149 139 161 171 163 183 176 183 211 249 262 224 169 190 226 245 252 253 262 266 259 259
231 242 266 288 304 194 162 142 143 153 127 125 126 129 136 142 143 143 139 135 131 130 127 127 133 135 140 132 147 167 171 155 182 193 191 207 256 270 202 157 182 239 249 253 257 254 260 270 271
228 241 240 267 36 303 215 140 99 82 92 104 119 127 131 143 142 142 140 134 132 129 123 121 127 129 128 129 147 150 151 149 157 147 157 206 236 317 348 275 221 241 251 256 267 265 278 286 285
225 232 212 223 190 206 227 115 109 106 108 119 124 130 141 152 147 141 137 133 132 130 130 128 118 105 99 94 130 133 137 148 139 123 111 323 353 344 315 293 301 293 304 297 291 286 290 295 301
224 225 206 208 189 173 161 187 138 133 138 137 135 140 148 158 147 137 135 136 137 135 129 126 125 110 102 99 68 67 110 104 112 108 106 344 4 353 314 299 315 321 324 319 297 301 298 295 291
233 229 217 205 196 188 175 189 179 152 152 144 142 147 150 151 154 144 141 139 136 133 130 129 129 115 105 97 90 92 47 78 76 90 90 50 9 337 316 309 314 337 313 301 300 307 309 297 295
225 229 223 206 205 196 202 212 183 161 166 156 154 153 149 150 149 140 139 134 132 132 129 130 126 120 118 107 87 61 21 42 53 60 66 40 356 333 319 328 350 325 309 315 303 311 318 311 310
218 229 235 207 204 202 197 195 164 188 183 174 170 163 157 152 148 141 136 131 130 125 121 117 108 109 116 121 125 112 79 45 51 52 42 21 353 340 328 334 333 309 322 329 324 351 326 312 316
227 233 246 228 198 211 204 186 173 184 195 190 174 165 165 165 159 149 140 136 130 128 122 115 115 115 117 108 101 96 105 103 89 77 49 14 353 345 331 312 339 320 332 337 344 331 315 297 293
278 261 258 258 228 221 218 201 186 184 196 194 185 173 171 167 159 150 145 141 137 134 131 130 126 119 122 121 126 142 149 139 116 103 75 33 0 343 329 337 330 319 325 330 325 321 317 310 312
259 247 249 255 248 248 242 219 202 194 196 195 189 175 170 162 154 152 149 147 145 141 139 135 131 129 125 108 109 136 118 100 100 73 61 43 13 346 339 355 335 328 321 316 309 310 304 302 313
259 255 259 232 234 238 246 239 216 201 194 191 190 180 176 171 163 156 155 156 149 141 138 134 129 130 126 112 98 78 87 87 70 88 80 45 18 3 356 347 343 333 329 322 323 332 311 304 305
274 258 269 270 254 250 240 247 214 199 188 185 183 182 179 173 166 158 161 161 151 144 140 134 128 127 123 116 110 122 159 153 80 68 71 38 359 359 358 347 350 338 332 332 326 345 318 307 308
277 294 274 267 266 269 268 273 236 192 178 183 183 186 180 176 166 163 161 157 149 146 142 135 130 130 126 135 140 150 95 67 61 56 348 284 283 315 349 350 343 334 332 330 325 327 320 310 307
275 281 269 262 267 270 266 265 252 207 192 189 175 171 170 163 145 144 146 149 148 144 141 138 137 138 143 156 152 163 151 196 270 292 268 270 263 258 350 354 347 334 320 318 320 317 306 303 308
260 272 276 273 253 260 274 266 235 164 147 161 157 158 157 145 140 144 148 152 143 141 142 142 146 152 159 160 163 186 200 237 238 260 282 281 275 317 20 353 331 320 317 314 326 309 310 315 310
256 261 274 294 295 292 262 250 90 77 84 92 105 116 129 138 143 147 151 151 147 151 157 152 155 158 167 171 178 184 214 249 266 283 286 289 318 338 353 314 319 322 319 326 329 307 314 320 303
266 269 275 276 280 289 280 262 125 101 95 97 106 123 128 135 140 144 142 144 147 158 162 160 157 161 172 178 182 181 182 215 287 288 284 322 308 296 349 329 329 319 323 331 324 317 322 321 301
264 279 288 284 293 290 280 293 327 170 150 147 158 149 130 131 138 136 131 132 126 134 137 138 156 165 170 170 179 163 166 199 251 276 319 4 348 350 324 325 323 325 324 332 327 321 323 322 308
276 268 269 278 285 293 301 308 173 206 164 155 156 145 139 138 134 131 130 130 130 133 133 141 153 155 165 163 157 148 147 209 282 263 249 354 358 326 321 322 321 324 329 337 323 323 327 322 323
292 287 285 283 283 287 291 290 114 139 120 133 127 125 125 124 126 131 132 133 135 138 142 147 148 144 144 132 128 110 97 51 336 346 356 343 309 305 317 321 322 327 353 344 332 339 346 336 334